CZ-6A DEB, 61168

Orbit data source: Space-Track

CZ-6A DEB, 61168 is space debris in LEO originally from a launch on Tue, 06 Aug 2024 UTC launched from the Taiyaun Space Center, China (TSC). Debris objects in space refer to the collection of defunct objects orbiting the Earth. Examples of debris include non-operational satellites, rocket bodies, and fragments generated from explosions, collisions, or faulty payload assembly.

Loading next visibility...
Identifier
61168, 2024-140RN
Orbit
LEO
Country
Flag of CNCN / PRC
Related business
Manufacturer
SAST
Mission
Spacecraft
Bus & Motor
Unknown
Mass
Unknown
Launch date (UTC)
2024-08-06 (2 years ago)
Launch vehicle
Unknown
Launch site
Taiyaun Space Center, China (TSC)
Object type
Payload
Rocket body
Debris
Shape & HBR
Unknown shape, 0.1 m
Radar Cross Section
Medium (>0.1 m² and <1 m²)

Expand to show TLE details & history
Last TLE update: 1 day ago

TLE from 1 day ago
0 CZ-6A DEB
1 61168U 24140RN  26170.52820632  .00055060  00000-0  30370-2 0  9998
2 61168  88.1428 192.9735 0041381 146.9357 213.4484 15.12994679 98605
Epoch: 2026-06-19T12:40Z
TLE epoch observation values (Epoch: 2026-06-19T12:40:37.026Z)
Latitude
-0.00004°
Longitude
95.06333°
Altitude
554.137 km
Speed
7.571 km/s
True Right ascension
12h 51m 53s
True Declination
0° 00' 00"
Sunlit
Object was in daylight at epoch
Visualization orbit readout
Latitude
Unknown
Longitude
Unknown
Altitude
Unknown
Speed
Unknown
Apparent Right ascension
Unknown
Apparent Declination
Unknown
Sunlit
N/A
Visualization observer readout
Local Sidereal Time
07:18:23
Azimuth
Unknown
Elevation
Unknown
Doppler factor
Unknown
Orbital elements
Apogee altitude
552.461 km
Perigee altitude
495.338 km
Semi-major axis
6,902.037 km
Eccentricity
0.00414
Inclination
88.1428°
RAAN
192.9735°
Arg. of periapsis
146.9357°
True anomaly
213.18816°
Mean anomaly
213.4484°
Eccentric anomaly
213.31817°
Mean motion
3.7851 °/min
Orbital period
95.11 mins
BSTAR
0.003037
Loading maneuver chart data...
Computing Atmospheric mass density...
Loading historical data...
Loading historical data...
Loading historical data...
Loading historical data...
Loading historical data...
Loading historical data...
Loading historical data...

Documentation

Showing up to 5 results
|